Location: Bohars
(48.4298°N, 4.5129°W)
Time: 06:13:55
(UTC+00:00)

Daily predictions for brighter satellites

Satellite Brightness Start Highest point End
(mag) Time Altitude Azimuth Time Altitude Azimuth Time Altitude Azimuth
Cosmos 1500 Rocket 3.5 20:10:21 10° S 20:14:39 72° E 20:18:59 10° NNE
Cosmos 2322 Rocket 4.4 20:15:24 10° N 20:17:53 13° NNE 20:20:22 10° NE
Ariane Rocket 3.7 20:13:41 10° S 20:18:39 57° W 20:23:40 10° NNW
Cosmos 1992 Rocket 4.5 20:14:23 10° NNW 20:19:35 64° WSW 20:24:44 10° S
Meteor 1-4 Rocket 4.3 20:17:16 10° NNE 20:19:38 17° ENE 20:21:59 10° ESE
USA 186 3.3 20:18:00 10° SSW 20:19:57 24° W 20:21:53 10° NW
Resurs 1-3 3.6 20:15:45 10° SSE 20:20:06 71° ENE 20:24:30 10° N
FREGAT/IRIS 4.0 20:21:02 10° SSW 20:23:28 33° W 20:25:55 10° NNW
SL-8 R/B 4.2 20:19:15 10° W 20:23:56 51° SSW 20:28:36 10° SE
ARGOS 4.5 20:19:12 10° SSW 20:24:16 41° W 20:29:22 10° NNW
CZ-2C R/B 2.6 20:19:09 10° NNE 20:24:21 83° ESE 20:29:34 10° SSW
Cosmos 407 Rocket 4.3 20:20:06 10° SSE 20:24:44 31° E 20:29:22 10° NE
Terra 3.9 20:23:10 10° ENE 20:25:03 12° NE 20:26:56 10° NNE
USA 234 3.6 20:19:55 10° ESE 20:26:21 62° NNE 20:32:47 10° NW
Meteor 1-27 Rocket 4.2 20:24:46 10° N 20:30:31 50° ENE 20:36:17 10° SSE
Meteor 1-10 Rocket 4.3 20:25:28 10° N 20:31:09 77° ENE 20:36:54 10° SSE
Cosmos 1782 4.0 20:28:43 10° NNW 20:32:34 45° W 20:36:24 10° SSW
ERBS 3.1 20:32:24 10° WSW 20:35:40 53° NNW 20:38:55 10° NE
BREEZE-M DEB (TANK) 3.8 20:30:26 10° WNW 20:36:06 31° SW 20:38:48 10° SSE
Cosmos 1805 Rocket 3.6 20:33:24 10° S 20:37:46 63° E 20:42:11 10° NNE
H-2A R/B 4.3 20:34:01 10° SSW 20:38:10 24° W 20:42:16 10° NW
SPOT 5 4.4 20:36:10 10° ESE 20:39:04 18° ENE 20:42:01 10° NNE
Cosmos 1980 Rocket 2.9 20:36:50 10° NNW 20:42:14 41° NE 20:47:05 12° ESE
SPOT 1/Viking Rocket 4.3 20:39:53 11° SE 20:44:28 38° ENE 20:49:17 10° N
DMSP B5D2-2 4.4 20:40:28 10° N 20:45:41 71° WNW 20:50:53 10° SSW
SL-4 R/B 2.7 20:42:55 10° SSW 20:46:22 28° SE 20:49:35 10° E
BREEZE-M DEB (TANK) 2.0 20:44:51 10° WSW 20:47:19 77° SSE 20:52:47 10° ENE
Genesis I 4.3 20:44:03 10° NNW 20:47:38 34° NE 20:50:44 13° ESE
Cosmos 972 4.4 20:42:30 10° NNW 20:47:48 83° ENE 20:52:42 10° SSE
Cosmos 1140 Rocket 4.0 20:45:29 10° S 20:50:19 39° ESE 20:55:11 10° NE
ATLAS 5 CENTAUR R/B 2.9 20:45:06 10° NW 20:50:41 58° SW 20:57:10 10° SSE
Cosmos 389 Rocket 2.9 20:50:51 10° NNW 20:54:16 61° W 20:57:39 10° S
Cosmos 2228 Rocket 4.2 20:50:33 10° NNW 20:54:46 44° W 20:58:57 10° SSW
Cosmos 1812 2.9 20:53:32 10° NNW 20:57:23 71° W 21:01:11 10° S
Cosmos 1697 Rocket 2.7 20:52:28 10° NNW 20:58:08 87° ENE 21:03:04 14° SSE
Cosmos 1833 Rocket 2.7 20:53:42 10° SSW 20:59:13 63° ESE 21:04:48 10° NNE
Cosmos 1633 Rocket 3.5 20:55:10 10° SSE 20:59:21 43° E 21:03:33 10° NNE
SPOT 3 Rocket 4.3 20:57:00 10° S 21:02:05 53° W 21:07:11 10° NNW
Cosmos 1867 4.2 21:00:42 10° S 21:05:30 33° ESE 21:10:22 10° NE
CENTAUR R/B 3.8 21:04:46 15° ESE 21:06:07 16° ESE 21:10:01 10° ENE
Cosmos 1707 Rocket 3.5 21:04:33 10° N 21:08:56 86° W 21:12:53 12° S
Resurs 01 Rocket 2.2 21:05:49 10° S 21:10:09 55° W 21:14:31 10° NNW
FALCON 9 DEB 3.9 21:09:00 10° SSW 21:12:07 31° SE 21:15:15 10° ENE
Landsat 7 3.8 21:08:59 15° SSE 21:12:52 75° ENE 21:17:38 10° N
Cosmos 1441 Rocket 3.7 21:10:11 10° SSW 21:13:56 59° WNW 21:17:41 10° N
deb Kosmos-1763 4.5 21:14:16 18° S 21:16:36 40° ESE 21:20:03 10° NE
Cosmos 676 Rocket 4.4 21:14:10 10° S 21:19:10 44° ESE 21:24:15 10° NE
ATLAS 5 CENTAUR R/B 3.7 21:18:08 10° N 21:19:51 16° NE 21:22:29 10° E
IGS 5A 3.4 21:17:35 18° SSE 21:20:39 90° SSE 21:24:49 10° NNW
Cosmos 1470 Rocket 4.0 21:19:31 21° SSE 21:22:04 42° E 21:26:14 10° NNE
Cosmos 614 Rocket 4.3 21:17:39 10° SSW 21:22:47 68° WNW 21:28:00 10° NNE
Cosmos 1934 Rocket 4.0 21:17:41 10° S 21:24:02 77° E 21:30:26 10° NNE
Aureole 1 Rocket 4.4 21:18:20 10° S 21:24:58 63° ESE 21:33:04 10° NNE
Cosmos 2360 4.3 21:19:39 10° NNW 21:25:25 78° WSW 21:29:33 19° SSE
Shenzhou-11 Module 3.7 21:24:22 10° SW 21:25:15 14° SW 21:25:15 14° SW
SWAS 4.4 21:22:27 10° SSW 21:26:47 84° ESE 21:31:08 10° NNE
GP-B 3.0 21:23:02 10° N 21:27:30 75° E 21:30:41 19° S
NOSS 3-2 (A) 3.7 21:26:12 10° S 21:31:27 40° ESE 21:37:23 10° NE
Cosmos 921 Rocket 3.2 21:28:49 10° NNW 21:32:59 52° ENE 21:34:51 29° SE
USA 267 3.2 21:26:41 10° NE 21:33:16 89° SSE 21:39:50 10° WSW
Cosmos 1862 Rocket 3.5 21:30:59 10° N 21:35:30 88° E 21:38:10 24° S
NOSS 3-2 (C) 4.2 21:35:51 24° SE 21:37:35 28° ESE 21:42:52 10° ENE
COSMOS 2406 4.1 21:32:08 10° SW 21:37:44 53° NW 21:43:21 10° NNE
ERS-1 Rocket 3.0 21:36:09 25° SSE 21:39:07 73° ENE 21:44:08 10° N
OPS 6432 4.5 21:35:06 10° SSW 21:39:17 64° SE 21:42:31 10° NE
Meteor 2-20 Rocket 4.5 21:33:42 10° N 21:39:54 85° W 21:44:35 18° S
SL-16 R/B 3.1 21:35:47 10° NNW 21:41:04 38° NE 21:44:17 21° ESE
SAR-Lupe-2 3.8 21:37:37 10° NNE 21:41:06 46° E 21:41:55 38° SE
Lacrosse 5 2.5 21:37:01 10° NW 21:41:58 50° NNE 21:45:31 18° E
Sich 1 4.4 21:37:54 10° SW 21:42:05 40° WNW 21:46:18 10° N
Cosmos 468 Rocket 4.5 21:37:58 10° NNW 21:43:09 49° ENE 21:45:45 27° ESE
Cosmos 2369 4.4 21:40:31 10° NW 21:46:00 47° WSW 21:50:01 18° S
NOSS 2 (A) 4.4 21:48:11 10° NW 21:50:43 58° NNE 21:50:43 58° NNE
Cosmos 1954 Rocket 3.9 21:47:07 10° SSW 21:52:27 80° ESE 21:57:47 10° NNE
Cosmos 2082 Rocket 2.2 21:46:45 10° SSW 21:52:28 87° WNW 21:58:11 10° NNE
Meteor 1-4 Rocket 3.8 21:51:37 10° NNW 21:54:49 34° W 21:56:38 20° SSW
Cosmos 2278 4.1 21:49:43 10° NW 21:55:21 59° WSW 21:58:39 25° S
Spot 2 Rocket 4.3 21:51:36 16° S 21:55:27 48° W 22:00:24 10° NNW
Cosmos 1184 Rocket 3.1 21:53:56 27° SSW 21:55:31 64° WNW 21:58:48 10° N
CARTOSAT-1 3.6 21:57:12 32° S 21:59:10 73° WSW 22:03:31 10° NNW
Terra 1.8 22:00:02 36° SSE 22:01:59 75° ENE 22:06:45 10° N
Cosmos 1933 Rocket 3.5 22:01:23 34° S 22:03:15 78° E 22:07:42 10° NNE
Cosmos 2322 Rocket 2.9 21:58:04 10° NNW 22:03:31 44° NE 22:06:13 27° ESE
Okean 1 3.2 22:01:55 10° N 22:05:58 88° ENE 22:07:07 46° S
Cosmos 1238 Rocket 2.3 22:06:54 55° SW 22:07:21 66° W 22:10:17 10° N
Cosmos 1602 3.6 22:06:47 46° S 22:07:52 81° E 22:11:49 10° NNE
Cosmos 2100 Rocket 4.4 22:05:35 32° SE 22:07:54 45° E 22:13:42 10° NNE
USA 234 3.5 22:06:06 29° SSE 22:09:26 58° SW 22:15:53 10° WNW
Meteor 1-20 Rocket 4.4 22:05:30 16° SSW 22:10:13 78° WNW 22:16:07 10° N
Cosmos 1437 Rocket 2.6 22:06:28 10° N 22:10:17 66° ENE 22:10:50 56° SE
Cosmos 1605 Rocket 4.1 22:05:45 15° SSW 22:10:52 76° W 22:17:00 10° N
Cosmos 1869 Rocket 4.1 22:13:01 39° ESE 22:13:29 41° E 22:17:39 10° NNE
SPOT 5 3.0 22:15:08 34° SSW 22:16:46 57° W 22:21:04 10° NNW
Cosmos 2360 Rocket 3.3 22:12:27 10° NNW 22:17:36 34° NE 22:20:19 22° E
JB-3 4.4 22:16:28 10° NNE 22:20:25 58° E 22:20:44 56° ESE
ATLAS 3B R/B 3.8 22:21:12 23° ESE 22:21:12 23° ESE 22:25:40 10° ENE
Iridium 4 Rocket 3.4 22:21:45 44° ESE 22:22:12 46° E 22:26:16 10° NNE
Meteor 1-19 Rocket 4.1 22:16:55 10° NNW 22:22:21 79° W 22:24:35 37° S
Geosat 4.4 22:20:48 35° ESE 22:22:39 54° NE 22:27:33 10° NNW
Cosmos 1703 Rocket 3.5 22:18:48 10° NNW 22:23:11 82° W 22:24:15 51° S
Cosmos 2173 Rocket 4.1 22:21:11 37° SSE 22:23:25 55° E 22:29:23 10° NNE
Cosmos 2242 Rocket 3.9 22:19:06 10° NNW 22:23:30 60° W 22:24:57 38° SSW
Cosmos 1500 3.6 22:25:10 44° ENE 22:25:10 44° ENE 22:28:25 10° NNE
Genesis I 4.3 22:21:42 10° NW 22:25:11 31° WSW 22:25:37 30° SW
Cosmos 405 Rocket 3.0 22:24:28 41° SW 22:25:30 59° WNW 22:29:12 10° N
SL-4 R/B 1.7 22:21:54 10° WSW 22:25:44 79° NNW 22:27:13 34° ENE
Cosmos 1980 Rocket 3.2 22:21:00 10° NW 22:26:12 38° WSW 22:28:51 24° SSW
USA 238 DEB 3.6 22:20:37 10° SW 22:27:16 85° SE 22:34:14 10° NE
USA 238 3.6 22:20:44 10° SW 22:27:22 84° SE 22:34:20 10° NE
ALOS 2 4.4 22:27:44 18° E 22:28:42 20° ENE 22:31:52 10° NNE
Cosmos 1763 Rocket 3.5 22:24:07 10° NNW 22:29:28 84° WSW 22:31:09 45° SSE
Meteor 1-14 Rocket 4.3 22:29:24 31° SSW 22:32:23 88° W 22:38:22 10° NNE
Cosmos 1536 4.4 22:34:39 22° ENE 22:34:39 22° ENE 22:37:08 10° NE
Cosmos 1666 4.2 22:37:32 25° ENE 22:37:32 25° ENE 22:39:53 10° NNE
Cosmos 2333 Rocket 4.0 22:33:09 10° N 22:37:49 24° NE 22:41:19 14° E
Cosmos 2016 Rocket 4.3 22:39:51 40° SE 22:41:39 52° E 22:47:49 10° NNE
Meteor 1-13 Rocket 4.3 22:36:29 10° N 22:41:59 60° ENE 22:43:23 46° SE
Meteor 1-5 Rocket 4.4 22:40:38 44° SSE 22:42:23 64° E 22:48:17 10° NNE
Cosmos 2061 Rocket 4.2 22:41:23 41° SE 22:43:03 53° E 22:49:03 10° NNE
Okean 1-7 3.4 22:40:16 10° NNW 22:44:31 55° W 22:45:21 46° SW
Cosmos 1459 Rocket 3.9 22:42:36 40° S 22:45:00 78° E 22:51:23 10° NNE
MOS 1-B Rocket 3.9 22:39:54 10° NNE 22:45:31 57° E 22:46:44 47° SE
Cosmos 2221 Rocket 3.8 22:41:43 10° N 22:46:07 54° ENE 22:46:29 53° E
Cosmos 1867 4.4 22:43:38 10° WSW 22:48:56 51° NW 22:54:17 10° NNE
FALCON 9 DEB 3.6 22:45:31 10° WSW 22:48:49 61° NW 22:48:49 61° NW
Okean 3 3.4 22:45:59 10° N 22:50:18 73° E 22:50:30 71° ESE
Cosmos 1733 Rocket 4.1 22:50:59 32° ENE 22:50:59 32° ENE 22:54:31 10° NNE
SL-27 R/B 3.4 22:53:09 39° NNE 22:53:09 39° NNE 22:55:23 10° NNE
CENTAUR R/B 2.4 22:51:50 27° SSW 22:55:25 81° SE 23:02:35 10° NE
Thor Agena Rocket 3.8 22:51:48 10° NNE 22:56:43 48° E 22:57:00 48° ESE
Cosmos 1850 Rocket 4.1 22:54:34 35° SW 22:56:50 74° WNW 23:02:09 10° NNE
Cosmos 967 Rocket 4.5 22:52:31 10° NW 22:58:56 77° NE 23:01:03 44° SE
Meteor 2-4 Rocket 3.9 22:53:43 10° NNW 22:59:22 65° W 23:00:58 45° SSW
Cosmos 44 3.3 22:55:50 10° NW 23:00:45 84° NE 23:01:33 63° SE
Cosmos 1802 Rocket 4.0 22:58:40 44° S 23:00:54 83° E 23:07:18 10° N
Spot 4 3.7 23:06:33 69° SE 23:07:07 80° ENE 23:11:57 10° NNW
Cosmos 2346 Rocket 4.3 23:03:32 10° N 23:09:38 89° W 23:11:12 53° S
Cosmos 2233 Rocket 4.3 23:14:31 45° SE 23:15:44 51° E 23:21:50 10° NNE
USA 267 4.2 23:09:46 10° ENE 23:16:00 49° NNW 23:22:13 10° W
Cosmos 841 Rocket 3.7 23:16:20 10° NNW 23:21:28 58° WSW 23:22:05 54° SW
NOSS 3-2 (A) 4.3 23:16:27 10° WSW 23:22:10 51° NW 23:28:46 10° NE
Cosmos 540 Rocket 3.6 23:17:33 10° NNW 23:22:38 59° WSW 23:23:10 55° SW
Lacrosse 5 2.2 23:20:06 10° WNW 23:24:41 49° WSW 23:24:41 49° WSW
Cosmos 1816 Rocket 4.4 23:18:45 10° N 23:25:05 85° W 23:26:36 55° S
SL-16 R/B 2.8 23:19:56 10° NW 23:25:15 43° WSW 23:26:08 40° SW
NOSS 3-2 (C) 3.7 23:23:11 16° WSW 23:27:53 66° NW 23:34:36 10° NE
Cosmos 2322 4.1 23:22:31 10° NNW 23:28:07 57° ENE 23:29:31 45° ESE
Cosmos 1833 4.3 23:28:44 54° ESE 23:28:53 54° ESE 23:34:23 10° NE
Cosmos 1378 Rocket 3.9 23:24:33 10° N 23:28:49 54° ENE 23:28:49 54° ENE
Cosmos 2084 Rocket 3.6 23:35:30 71° N 23:35:30 71° N 23:39:34 10° NE
Cosmos 2208 Rocket 4.3 23:30:09 10° NNW 23:35:16 52° WSW 23:35:41 50° WSW
Cosmos 1814 Rocket 4.2 23:30:17 10° NNW 23:35:21 54° WSW 23:35:45 53° SW
Cosmos 2219 Rocket 2.9 23:31:06 10° NNW 23:36:37 47° NE 23:38:19 37° E
Tsikada Rocket 4.0 23:31:53 10° NNW 23:38:16 78° W 23:39:45 55° SSW
Terra 4.0 23:38:55 13° WSW 23:40:17 15° W 23:42:58 10° NW
EO 1 Del DPAF 3.8 23:36:54 10° N 23:39:56 54° N 23:39:56 54° N
Cosmos 2237 4.2 23:36:18 10° NNW 23:41:57 63° WSW 23:42:34 59° SW
Cosmos 1975 Rocket 4.5 23:38:19 10° N 23:42:14 28° ENE 23:42:25 28° ENE
Cosmos 2333 4.3 23:36:46 10° NNW 23:42:36 71° ENE 23:43:44 56° ESE
Cosmos 1242 Rocket 3.7 23:43:36 10° NNW 23:46:08 41° NW 23:46:08 41° NW
Cosmos 2322 Rocket 3.1 23:42:20 10° NW 23:47:28 35° WSW 23:48:01 35° WSW
Helios 1A 3.7 23:49:48 45° ENE 23:49:48 45° ENE 23:53:39 10° N
Cosmos 1486 Rocket 4.1 23:52:11 58° E 23:52:11 58° E 23:57:10 10° NNE
Meteor 1-11 Rocket 4.2 23:51:38 43° WSW 23:53:05 55° WNW 23:58:44 10° N
